This demonstration page uses our WeatherBlox Daily Observations layout. Learn more.

Left ArrowRight Arrow

53.62937, 11.41316

Hourly Observations for January 11, 2018

Temp ( °F °C ) Dew Point ( °F °C ) Humidity (%) Winds ( mph kmh ) Pressure ( in mb ) Visibility ( mi km ) Precip ( " mm )
7:50 am 07:50 Cloudy with Freezing Fog 30 -1 30 -1 100 100 VRB 1 2 29.97 1015 0 0 N/A
8:20 am 08:20 Cloudy with Freezing Fog 30 -1 30 -1 100 100 VRB 1 2 30.00 1016 0 1 N/A
8:50 am 08:50 Cloudy with Freezing Fog 30 -1 30 -1 100 100 VRB 1 2 30.00 1016 0 1 N/A
9:20 am 09:20 Cloudy with Mist and Fog 30 -1 30 -1 100 100 VRB 1 2 30.00 1016 1 2 N/A
9:50 am 09:50 Cloudy with Mist and Fog 32 0 32 0 100 100 NNE 2 4 30.00 1016 1 2 N/A
10:20 am 10:20 Cloudy with Mist and Fog 32 0 32 0 100 100 N 3 6 30.00 1016 1 2 N/A
10:50 am 10:50 Cloudy with Mist and Fog 32 0 32 0 100 100 N 3 6 30.03 1017 2 4 N/A
11:20 am 11:20 Cloudy with Light Rain 32 0 32 0 100 100 NNW 3 6 30.00 1016 3 5 N/A
12:20 pm 12:20 Mostly Cloudy with Light Rain 32 0 32 0 100 100 VRB 1 2 30.03 1017 4 6 N/A
12:50 pm 12:50 Cloudy with Light Rain 32 0 32 0 100 100 VRB 2 4 30.03 1017 4 6 N/A
1:20 pm 13:20 Mostly Cloudy with Light Rain 34 1 34 1 100 100 VRB 1 2 30.03 1017 4 6 N/A
1:50 pm 13:50 Cloudy with Light Rain 34 1 34 1 100 100 VRB 1 2 30.03 1017 2 3 N/A
2:20 pm 14:20 Mostly Cloudy with Light Rain 34 1 34 1 100 100 VRB 2 4 30.03 1017 4 6 N/A
2:50 pm 14:50 Mostly Cloudy 34 1 34 1 100 100 WNW 2 4 30.03 1017 4 6 N/A
3:20 pm 15:20 Mostly Cloudy with Mist and Fog 34 1 34 1 100 100 WNW 2 4 30.06 1018 3 5 N/A
3:50 pm 15:50 Cloudy with Mist and Fog 34 1 34 1 100 100 VRB 1 2 30.06 1018 3 5 N/A
4:20 pm 16:20 Mostly Cloudy with Mist and Fog 34 1 34 1 100 100 VRB 1 2 30.06 1018 3 4 N/A
4:50 pm 16:50 Mostly Cloudy with Drizzle 34 1 34 1 100 100 VRB 1 2 30.06 1018 2 4 N/A
5:20 pm 17:20 Mostly Cloudy with Mist and Fog 34 1 34 1 100 100 SW 1 2 30.09 1019 2 3 N/A
5:50 pm 17:50 Cloudy with Drizzle 34 1 34 1 100 100 VRB 1 2 30.09 1019 1 2 N/A

Powered by AerisWeather